EW9766 Weather Reports


time (UTC)temp
C
wind
direction
speed
KPH
gust
KPH
rain 1hr
cm
rain 24hr
cm
rain mn
cm
humidity
%
barometer
mb
20260831210034 25 251 6.4 17.7 0.00 0.00 0.00 44 1012.9
20260831204648 24 254 6.4 16.1 0.00 0.00 0.00 45 1013.0
20260831201537 24 245 6.4 16.1 0.00 0.00 0.00 46 1013.5
20260831200044 24 268 6.4 19.3 0.00 0.00 0.00 47 1013.8
20260831194532 23 256 4.8 14.5 0.00 0.00 0.00 49 1013.9
20260831193104 22 265 4.8 14.5 0.00 0.00 0.00 50 1014.1
20260831191536 22 257 6.4 14.5 0.00 0.00 0.00 52 1014.4
20260831190032 22 249 6.4 12.9 0.00 0.00 0.00 54 1014.6
20260831184530 21 267 4.8 12.9 0.00 0.00 0.00 56 1014.8
20260831181531 20 310 4.8 12.9 0.00 0.00 0.00 58 1015.2
20260831180105 20 311 4.8 12.9 0.00 0.00 0.00 59 1015.4
20260831164536 18 287 3.2 9.7 0.00 0.00 0.00 64 1016.0
20260831161532 17 319 3.2 6.4 0.00 0.00 0.00 66 1016.1
20260831160034 17 286 1.6 6.4 0.00 0.00 0.00 68 1016.2
20260831154532 17 273 0.0 4.8 0.00 0.00 0.00 72 1016.2
20260831153035 17 181 0.0 3.2 0.00 0.00 0.00 78 1016.2
20260831151530 15 157 0.0 1.6 0.00 0.00 0.00 86 1016.2
20260831150038 12 157 1.6 4.8 0.00 0.00 0.00 89 1016.2
20260831144534 9 157 3.2 4.8 0.00 0.00 0.00 90 1016.1
20260831141532 6 180 4.8 8.0 0.00 0.00 0.00 90 1016.0
20260831140032 6 180 6.4 8.0 0.00 0.00 0.00 89 1015.8
20260831134607 6 180 6.4 8.0 0.00 0.00 0.00 89 1015.8
20260831133038 6 180 6.4 8.0 0.00 0.00 0.00 88 1015.8
20260831131532 6 180 6.4 6.4 0.00 0.00 0.00 88 1015.9
20260831130149 6 174 4.8 8.0 0.00 0.00 0.00 87 1015.9
20260831124536 6 180 4.8 8.0 0.00 0.00 0.00 87 1015.8
20260831123033 6 180 4.8 8.0 0.00 0.00 0.00 87 1015.8
20260831121606 6 180 4.8 6.4 0.00 0.00 0.00 86 1015.8
20260831114536 6 168 6.4 9.7 0.00 0.00 0.00 86 1015.9
20260831113034 7 163 6.4 9.7 0.00 0.00 0.00 85 1016.0
20260831111530 7 161 6.4 8.0 0.00 0.00 0.00 85 1016.0
20260831110035 7 158 6.4 8.0 0.00 0.00 0.00 85 1016.1
20260831104535 7 150 6.4 9.7 0.00 0.00 0.00 84 1016.0
20260831103034 7 146 6.4 12.9 0.00 0.00 0.00 84 1016.1
20260831101605 7 148 6.4 11.3 0.00 0.00 0.00 83 1016.2
20260831100034 7 172 6.4 8.0 0.00 0.00 0.00 83 1016.3
20260831094537 7 163 6.4 8.0 0.00 0.00 0.00 82 1016.5
20260831093029 8 165 4.8 8.0 0.00 0.00 0.00 81 1016.6
20260831091532 8 148 4.8 8.0 0.00 0.00 0.00 81 1016.6
20260831090034 8 156 6.4 14.5 0.00 0.00 0.00 80 1016.8
20260831084538 8 153 8.0 11.3 0.00 0.00 0.00 80 1016.8
20260831083036 9 154 6.4 12.9 0.00 0.00 0.00 79 1017.0
20260831080106 9 148 6.4 11.3 0.00 0.00 0.00 79 1017.2
20260831073035 10 140 6.4 9.7 0.00 0.00 0.00 77 1017.2
20260831071531 10 158 6.4 12.9 0.00 0.00 0.00 77 1017.3
20260831070032 10 161 8.0 12.9 0.00 0.00 0.00 77 1017.3
20260831063030 10 138 8.0 16.1 0.00 0.00 0.00 78 1017.5
20260831060151 10 170 8.0 12.9 0.00 0.00 0.00 77 1017.6
20260831054531 10 160 8.0 12.9 0.00 0.00 0.00 76 1017.8
20260831053035 10 155 8.0 12.9 0.00 0.00 0.00 76 1017.9
20260831051607 11 162 6.4 11.3 0.00 0.00 0.00 75 1018.0
20260831050030 11 164 8.0 12.9 0.00 0.00 0.00 75 1018.1
20260831044534 11 151 8.0 11.3 0.00 0.00 0.00 76 1018.2
20260831043030 11 147 6.4 12.9 0.00 0.00 0.00 76 1018.2
20260831041533 10 157 8.0 11.3 0.00 0.00 0.00 77 1018.3
20260831040034 10 154 6.4 9.7 0.00 0.00 0.00 77 1018.1
20260831034533 10 150 6.4 9.7 0.00 0.00 0.00 76 1018.1
20260831033034 11 136 4.8 6.4 0.00 0.00 0.00 75 1018.0
20260831031536 11 135 1.6 4.8 0.00 0.00 0.00 73 1017.9
20260831030034 12 94 1.6 4.8 0.00 0.00 0.00 71 1017.9
20260831024535 13 80 1.6 4.8 0.00 0.00 0.00 68 1017.9
20260831023031 14 20 0.0 4.8 0.00 0.00 0.00 64 1017.8
20260831021536 16 360 0.0 3.2 0.00 0.00 0.00 59 1017.9
20260831014532 17 351 4.8 11.3 0.00 0.00 0.00 53 1017.8
20260831013044 18 344 6.4 12.9 0.00 0.00 0.00 51 1018.0
20260831011604 18 330 8.0 17.7 0.00 0.00 0.00 49 1018.0
20260831010035 19 326 8.0 17.7 0.00 0.00 0.00 49 1018.0
20260831004536 19 324 8.0 14.5 0.00 0.00 0.00 47 1018.0
20260831003029 20 336 9.7 22.5 0.00 0.00 0.00 46 1017.9
20260831000034 20 343 11.3 19.3 0.00 0.00 0.00 46 1018.0
20260830233030 21 356 12.9 17.7 0.00 0.00 0.00 44 1018.1
20260830231535 21 360 11.3 22.5 0.00 0.00 0.00 44 1018.1
20260830224534 21 1 12.9 20.9 0.00 0.00 0.00 46 1018.3
20260830223043 21 8 11.3 19.3 0.00 0.00 0.00 46 1018.6
20260830221531 21 8 12.9 19.3 0.00 0.00 0.00 45 1018.8
20260830214533 21 4 11.3 20.9 0.00 0.00 0.00 45 1019.2
20260830213032 21 1 9.7 14.5 0.00 0.00 0.00 45 1019.3
20260830211535 21 335 6.4 14.5 0.00 0.00 0.00 45 1019.4